EUTELSAT 5 WEST B

Last updated on Mon Nov 03 2025 00:02:59 GMT+0000 (Coordinated Universal Time)

1 44624U 19067A 25306.32306083 -.00000030 00000+0 00000+0 0 9996 2 44624 0.0684 350.0305 0003309 233.4218 289.7251 1.00270577 22168
UTC large
Height (km)
Speed (km/s)
/
Latitude / Longitude
Inclination (degrees)
Orbital Period (minutes)
Azimuth
Elevation
Range (km)
Doppler Factor

Next 0 passes for location: London (51.5072 / 0.1276)

Sorry there are no passes over London.